TimeCDT,TemperatureF,Dew PointF,Humidity,Sea Level PressureIn,VisibilityMPH,Wind Direction,Wind SpeedMPH,Gust SpeedMPH,PrecipitationIn,Events,Conditions,WindDirDegrees,DateUTC
12:53 AM,78.1,71.1,79,29.86,10.0,Calm,Calm,-,N/A,,Clear,0,2013-08-31 05:53:00
1:53 AM,77.0,71.1,82,29.87,10.0,Calm,Calm,-,N/A,,Clear,0,2013-08-31 06:53:00
2:53 AM,75.9,71.1,85,29.88,10.0,Calm,Calm,-,N/A,,Clear,0,2013-08-31 07:53:00
3:53 AM,75.0,70.0,84,29.87,10.0,Calm,Calm,-,N/A,,Clear,0,2013-08-31 08:53:00
4:53 AM,73.9,70.0,87,29.88,9.0,Calm,Calm,-,N/A,,Clear,0,2013-08-31 09:53:00
5:53 AM,73.0,70.0,90,29.88,9.0,Calm,Calm,-,N/A,,Clear,0,2013-08-31 10:53:00
6:53 AM,73.0,70.0,90,29.89,7.0,Calm,Calm,-,N/A,,Clear,0,2013-08-31 11:53:00
7:53 AM,75.9,71.1,85,29.90,9.0,Calm,Calm,-,N/A,,Clear,0,2013-08-31 12:53:00
8:53 AM,84.0,70.0,63,29.91,10.0,Calm,Calm,-,N/A,,Clear,0,2013-08-31 13:53:00
9:53 AM,89.1,69.1,52,29.90,10.0,Variable,3.5,-,N/A,,Clear,0,2013-08-31 14:53:00
10:53 AM,91.9,66.9,44,29.90,10.0,Calm,Calm,-,N/A,,Clear,0,2013-08-31 15:53:00
11:53 AM,96.1,68.0,40,29.88,10.0,Calm,Calm,-,N/A,,Clear,0,2013-08-31 16:53:00
12:53 PM,98.1,66.0,35,29.85,10.0,Variable,5.8,-,N/A,,Clear,0,2013-08-31 17:53:00
1:53 PM,100.0,66.0,33,29.83,10.0,Calm,Calm,-,N/A,,Clear,0,2013-08-31 18:53:00
2:53 PM,102.9,64.9,29,29.81,10.0,Calm,Calm,-,N/A,,Mostly Cloudy,0,2013-08-31 19:53:00
3:43 PM,98.6,66.2,35,29.83,10.0,Variable,5.8,-,N/A,Thunderstorm,Overcast,0,2013-08-31 20:43:00
3:53 PM,96.1,66.0,37,29.81,10.0,North,6.9,-,N/A,,Overcast,360,2013-08-31 20:53:00
4:04 PM,93.2,64.4,38,29.84,10.0,NNE,8.1,-,N/A,Thunderstorm,Thunderstorm,20,2013-08-31 21:04:00
4:53 PM,86.0,69.1,57,29.82,10.0,Variable,5.8,-,N/A,Thunderstorm,Thunderstorm,0,2013-08-31 21:53:00
5:31 PM,89.6,66.2,46,29.84,10.0,Variable,6.9,-,N/A,,Clear,0,2013-08-31 22:31:00
5:53 PM,90.0,64.9,43,29.81,10.0,SSW,3.5,-,N/A,,Clear,210,2013-08-31 22:53:00
6:53 PM,88.0,66.0,48,29.81,10.0,Calm,Calm,-,N/A,,Clear,0,2013-08-31 23:53:00
7:53 PM,84.0,66.0,55,29.81,10.0,Variable,3.5,-,N/A,,Clear,0,2013-09-01 00:53:00
8:53 PM,79.0,68.0,69,29.81,10.0,Calm,Calm,-,N/A,,Clear,0,2013-09-01 01:53:00
9:53 PM,78.1,69.1,74,29.82,10.0,Calm,Calm,-,N/A,,Clear,0,2013-09-01 02:53:00
10:53 PM,77.0,69.1,76,29.82,10.0,Calm,Calm,-,N/A,,Clear,0,2013-09-01 03:53:00
11:53 PM,75.9,70.0,82,29.81,10.0,Calm,Calm,-,N/A,,Clear,0,2013-09-01 04:53:00